Вернуться в каталог

STARLINK-33569

АктивенСвязьVLEO
NORAD 62769·PAYLOAD·🇺🇸 United States

Запущен Jan 21, 2025 с Vandenberg Space Force Base

Loading…

Ближайшие Пролёты (ближайшие 24 часа)

TLE

СвежийSource: CelesTrak SupGP

Эпоха: Sep 14, 2026, 20:37 UTC

1 62769C 25015M   26257.85951389 -.00037979  00000+0 -11220-2 0  2574
2 62769  53.1580 160.3338 0001281  91.0349 229.8994 15.34413778    13

Отслеживайте STARLINK-33569 в реальном времени с AllMySat

Download on the App Store